Location: Peterborough
(44.3091°N, 78.3197°W)
Time: 16:22:45
(UTC-04:00)

Explorer 7 - Pass Details

Date: 30 March 2023
Orbit: 477 x 653 km, 50.3° (Epoch: 04 June)

Event Time Altitude Azimuth Distance (km) Brightness Sun altitude
Rises 23:09:26 0° 285° (WNW) 2,719 11.1 -33.8°
Enters shadow 23:11:39 - 270° (W) 2,030 10.1 -34.0°
Reaches altitude 10° 23:12:43 10° 259° (WSW) 1,776 - -34.1°
Maximum altitude 23:14:40 13° 230° (SW) 1,552 - -34.4°
Drops below altitude 10° 23:16:33 10° 200° (SSW) 1,723 - -34.6°
Sets 23:19:39 0° 173° (S) 2,567 - -34.9°
